Location: Cargill Incorporated Elevator
(42.7294°N, 93.7333°W)
Time: 18:33:49
(UTC+00:00)

ISS - Pass Details

Date: 19 January 2026
Orbit: 413 x 428 km, 51.6° (Epoch: 17 February)

Event Time Altitude Azimuth Distance (km) Brightness Sun altitude
Rises 23:42:36 0° 271° (W) 2,354 1.5 -6.0°
Reaches altitude 10° 23:44:56 10° 286° (WNW) 1,496 -0.1 -6.4°
Maximum altitude 23:47:46 25° 343° (NNW) 902 -2.1 -6.9°
Drops below altitude 10° 23:50:37 10° 41° (NE) 1,508 -1.5 -7.4°
Enters shadow 23:51:04 - 45° (NE) 1,667 -1.3 -7.5°
